Hourly Weather Alkhan-Kala

Today, 8 March, Monday

Time Temperature Precipitation Wind Pressure Humidity
00:00 -1°C° 0 mm 2 mps 751 mmHg 53%
01:00 +1°C° 0 mm 1 mps 751 mmHg 55%
02:00 0°C° 0 mm 1 mps 751 mmHg 58%
03:00 -1°C° 0 mm 0 mps 751 mmHg 60%
04:00 -1°C° 0 mm 0 mps 751 mmHg 61%
05:00 -1°C° 0 mm 0 mps 750 mmHg 61%
06:00 -1°C° 0 mm 0 mps 750 mmHg 62%
07:00 +1°C° 0 mm 1 mps 750 mmHg 58%
08:00 +2°C° 0 mm 1 mps 750 mmHg 54%
09:00 +3°C° 0 mm 1 mps 750 mmHg 51%
10:00 +4°C° 0 mm 1 mps 749 mmHg 50%
11:00 +4°C° 0 mm 2 mps 749 mmHg 49%
12:00 +5°C° 0 mm 2 mps 748 mmHg 49%
13:00 +5°C° 0 mm 2 mps 748 mmHg 51%
14:00 +5°C° 0 mm 2 mps 747 mmHg 53%
15:00 +5°C° 0 mm 2 mps 747 mmHg 55%
16:00 +4°C° 0.1 mm 2 mps 747 mmHg 63%
17:00 +5°C° 0.1 mm 1 mps 747 mmHg 72%
18:00 +4°C° 0.1 mm 1 mps 748 mmHg 81%
19:00 +4°C° 0.1 mm 1 mps 748 mmHg 84%
20:00 +3°C° 0.1 mm 1 mps 748 mmHg 87%
21:00 +3°C° 0.1 mm 1 mps 748 mmHg 90%
22:00 +2°C° 0 mm 0 mps 748 mmHg 89%
23:00 +2°C° 0 mm 0 mps 748 mmHg 88%

Tomorrow, 9 March, Tuesday

Time Temperature Precipitation Wind Pressure Humidity
00:00 +2°C° 0 mm 0 mps 748 mmHg 88%
01:00 +2°C° 0 mm 0 mps 748 mmHg 87%
02:00 +1°C° 0 mm 0 mps 748 mmHg 87%
03:00 +1°C° 0 mm 0 mps 748 mmHg 87%
04:00 +1°C° 0 mm 0 mps 748 mmHg 87%
05:00 +1°C° 0 mm 0 mps 748 mmHg 87%
06:00 +1°C° 0 mm 0 mps 748 mmHg 86%
07:00 +2°C° 0 mm 0 mps 748 mmHg 80%
08:00 +3°C° 0 mm 0 mps 748 mmHg 73%
09:00 +4°C° 0 mm 0 mps 748 mmHg 66%
10:00 +6°C° 0 mm 1 mps 747 mmHg 60%
11:00 +7°C° 0 mm 1 mps 747 mmHg 54%
12:00 +7°C° 0 mm 2 mps 747 mmHg 48%
13:00 +7°C° 0 mm 2 mps 747 mmHg 46%
14:00 +9°C° 0 mm 1 mps 746 mmHg 44%
15:00 +9°C° 0 mm 1 mps 746 mmHg 43%
16:00 +9°C° 0 mm 1 mps 747 mmHg 45%
17:00 +8°C° 0 mm 1 mps 747 mmHg 47%
18:00 +7°C° 0 mm 1 mps 747 mmHg 50%
19:00 +7°C° 0 mm 1 mps 748 mmHg 52%
20:00 +7°C° 0 mm 1 mps 749 mmHg 55%
21:00 +6°C° 0 mm 1 mps 749 mmHg 57%
22:00 +5°C° 0.2 mm 1 mps 750 mmHg 69%
23:00 +3°C° 0.2 mm 2 mps 750 mmHg 80%

Day after tomorrow, 10 March, Wednesday

Time Temperature Precipitation Wind Pressure Humidity
00:00 +2°C° 0.2 mm 2 mps 750 mmHg 92%
01:00 +2°C° 0.7 mm 2 mps 750 mmHg 93%
02:00 +3°C° 0.7 mm 1 mps 751 mmHg 93%
03:00 +3°C° 0.7 mm 1 mps 751 mmHg 94%
04:00 +2°C° 0.6 mm 1 mps 751 mmHg 93%
05:00 +2°C° 0.6 mm 1 mps 752 mmHg 92%
06:00 +2°C° 0.6 mm 1 mps 752 mmHg 91%
07:00 +2°C° 0.3 mm 1 mps 752 mmHg 88%
08:00 +2°C° 0.3 mm 2 mps 752 mmHg 84%
09:00 +2°C° 0.3 mm 2 mps 752 mmHg 81%
10:00 +3°C° 0.1 mm 2 mps 752 mmHg 74%
11:00 +3°C° 0.1 mm 2 mps 751 mmHg 67%
12:00 +4°C° 0.1 mm 2 mps 751 mmHg 60%
13:00 +4°C° 0.1 mm 2 mps 751 mmHg 58%
14:00 +5°C° 0.1 mm 2 mps 751 mmHg 56%
15:00 +5°C° 0.1 mm 2 mps 751 mmHg 54%
16:00 +4°C° 0.1 mm 2 mps 751 mmHg 57%
17:00 +4°C° 0.1 mm 2 mps 751 mmHg 60%
18:00 +4°C° 0.1 mm 1 mps 751 mmHg 63%
19:00 +4°C° 0.1 mm 1 mps 751 mmHg 65%
20:00 +4°C° 0.1 mm 1 mps 752 mmHg 68%
21:00 +3°C° 0.1 mm 1 mps 752 mmHg 70%
22:00 +2°C° 0.1 mm 2 mps 752 mmHg 71%
23:00 +1°C° 0.1 mm 2 mps 751 mmHg 71%

11 March, Thursday

Time Temperature Precipitation Wind Pressure Humidity
00:00 +1°C° 0.1 mm 2 mps 751 mmHg 71%
01:00 -1°C° 0.1 mm 3 mps 751 mmHg 71%
02:00 -1°C° 0.1 mm 3 mps 751 mmHg 70%
03:00 -1°C° 0.1 mm 3 mps 751 mmHg 70%
04:00 -2°C° 0.3 mm 3 mps 751 mmHg 77%
05:00 -4°C° 0.3 mm 3 mps 751 mmHg 85%
06:00 -5°C° 0.3 mm 3 mps 751 mmHg 93%
07:00 -4°C° 0.4 mm 3 mps 751 mmHg 92%
08:00 -4°C° 0.4 mm 4 mps 751 mmHg 91%
09:00 -4°C° 0.4 mm 4 mps 751 mmHg 90%
10:00 -4°C° 0.4 mm 4 mps 750 mmHg 90%
11:00 -4°C° 0.4 mm 5 mps 750 mmHg 89%
12:00 -4°C° 0.4 mm 5 mps 750 mmHg 89%
13:00 -4°C° 0.6 mm 5 mps 750 mmHg 90%
14:00 -5°C° 0.6 mm 5 mps 749 mmHg 91%
15:00 -5°C° 0.6 mm 5 mps 749 mmHg 92%
16:00 -6°C° 0.6 mm 5 mps 749 mmHg 92%
17:00 -6°C° 0.6 mm 5 mps 749 mmHg 93%
18:00 -7°C° 0.6 mm 5 mps 749 mmHg 94%
19:00 -8°C° 0.6 mm 5 mps 750 mmHg 94%
20:00 -8°C° 0.6 mm 4 mps 750 mmHg 94%
21:00 -8°C° 0.6 mm 4 mps 750 mmHg 94%
22:00 -9°C° 0.4 mm 4 mps 750 mmHg 95%
23:00 -8°C° 0.4 mm 3 mps 750 mmHg 95%

12 March, Friday

Time Temperature Precipitation Wind Pressure Humidity
00:00 -8°C° 0.4 mm 3 mps 750 mmHg 95%
01:00 -8°C° 0.6 mm 3 mps 750 mmHg 95%
02:00 -8°C° 0.6 mm 3 mps 750 mmHg 95%
03:00 -8°C° 0.6 mm 3 mps 750 mmHg 95%
04:00 -8°C° 0.5 mm 3 mps 750 mmHg 95%
05:00 -8°C° 0.5 mm 3 mps 751 mmHg 95%
06:00 -8°C° 0.5 mm 3 mps 751 mmHg 95%
07:00 -8°C° 0.5 mm 3 mps 752 mmHg 95%
08:00 -8°C° 0.5 mm 3 mps 752 mmHg 94%
09:00 -8°C° 0.5 mm 4 mps 752 mmHg 93%
10:00 -8°C° 0.5 mm 4 mps 752 mmHg 93%
11:00 -8°C° 0.5 mm 4 mps 753 mmHg 94%
12:00 -7°C° 0.5 mm 4 mps 753 mmHg 94%
13:00 -7°C° 0.5 mm 4 mps 753 mmHg 94%
14:00 -7°C° 0.5 mm 4 mps 753 mmHg 94%
15:00 -7°C° 0.5 mm 4 mps 754 mmHg 94%
16:00 -8°C° 0.3 mm 4 mps 754 mmHg 94%
17:00 -7°C° 0.3 mm 3 mps 755 mmHg 95%
18:00 -8°C° 0.3 mm 3 mps 755 mmHg 95%
19:00 -9°C° 0.1 mm 3 mps 756 mmHg 96%
20:00 -9°C° 0.1 mm 2 mps 757 mmHg 96%
21:00 -9°C° 0.1 mm 2 mps 758 mmHg 97%
22:00 -9°C° 0 mm 1 mps 758 mmHg 96%
23:00 -9°C° 0 mm 1 mps 758 mmHg 96%

13 March, Saturday

Time Temperature Precipitation Wind Pressure Humidity
00:00 -10°C° 0 mm 1 mps 758 mmHg 95%
01:00 -10°C° 0 mm 1 mps 758 mmHg 94%
02:00 -11°C° 0 mm 0 mps 758 mmHg 94%
03:00 -11°C° 0 mm 0 mps 758 mmHg 93%
04:00 -11°C° 0 mm 0 mps 759 mmHg 92%
05:00 -11°C° 0 mm 0 mps 759 mmHg 92%
06:00 -12°C° 0 mm 1 mps 759 mmHg 92%
07:00 -10°C° 0 mm 1 mps 759 mmHg 90%
08:00 -9°C° 0 mm 1 mps 759 mmHg 89%
09:00 -8°C° 0 mm 2 mps 759 mmHg 88%
10:00 -7°C° 0 mm 2 mps 759 mmHg 88%
11:00 -7°C° 0 mm 3 mps 758 mmHg 89%
12:00 -6°C° 0 mm 3 mps 758 mmHg 89%
13:00 -5°C° 0 mm 3 mps 757 mmHg 89%
14:00 -5°C° 0 mm 3 mps 757 mmHg 89%
15:00 -5°C° 0 mm 3 mps 757 mmHg 89%
16:00 -5°C° 0 mm 3 mps 757 mmHg 90%
17:00 -5°C° 0 mm 2 mps 757 mmHg 92%
18:00 -6°C° 0 mm 2 mps 757 mmHg 93%
19:00 -6°C° 0 mm 2 mps 757 mmHg 93%
20:00 -6°C° 0 mm 1 mps 758 mmHg 94%
21:00 -7°C° 0 mm 1 mps 758 mmHg 94%
22:00 -8°C° 0 mm 1 mps 757 mmHg 94%
23:00 -8°C° 0 mm 1 mps 757 mmHg 93%
Show more